TimeCDT,TemperatureF,Dew PointF,Humidity,Sea Level PressureIn,VisibilityMPH,Wind Direction,Wind SpeedMPH,Gust SpeedMPH,PrecipitationIn,Events,Conditions,WindDirDegrees,DateUTC
12:15 AM,78.4,73.4,84,29.95,10.0,Calm,Calm,-,N/A,,Scattered Clouds,0,2013-07-11 05:15:00
12:35 AM,78.4,73.6,85,29.95,10.0,Calm,Calm,-,N/A,,Mostly Cloudy,0,2013-07-11 05:35:00
12:55 AM,78.8,73.6,84,29.94,10.0,Calm,Calm,-,N/A,,Scattered Clouds,0,2013-07-11 05:55:00
1:15 AM,78.1,73.0,84,29.94,10.0,Calm,Calm,-,N/A,,Clear,0,2013-07-11 06:15:00
1:35 AM,77.9,73.0,85,29.94,10.0,NNW,3.5,-,N/A,,Clear,330,2013-07-11 06:35:00
1:55 AM,78.1,73.2,85,29.93,10.0,NNW,3.5,-,N/A,,Clear,330,2013-07-11 06:55:00
2:15 AM,77.7,73.0,85,29.94,10.0,Calm,Calm,-,N/A,,Clear,0,2013-07-11 07:15:00
2:35 AM,77.9,73.0,85,29.95,10.0,Calm,Calm,-,N/A,,Clear,0,2013-07-11 07:35:00
2:55 AM,77.0,72.5,86,29.94,10.0,Calm,Calm,-,N/A,,Clear,0,2013-07-11 07:55:00
3:15 AM,77.0,72.7,86,29.95,10.0,Calm,Calm,-,N/A,,Clear,0,2013-07-11 08:15:00
3:35 AM,75.7,72.1,89,29.95,10.0,West,3.5,-,N/A,,Clear,280,2013-07-11 08:35:00
3:55 AM,76.5,72.7,88,29.95,10.0,Calm,Calm,-,N/A,,Clear,0,2013-07-11 08:55:00
4:15 AM,76.5,72.5,87,29.95,10.0,North,3.5,-,N/A,,Clear,350,2013-07-11 09:15:00
4:35 AM,76.5,72.1,86,29.95,10.0,Calm,Calm,-,N/A,,Clear,0,2013-07-11 09:35:00
4:55 AM,76.5,72.0,86,29.95,10.0,North,3.5,-,N/A,,Clear,10,2013-07-11 09:55:00
5:15 AM,76.1,71.6,86,29.95,10.0,Calm,Calm,-,N/A,,Clear,0,2013-07-11 10:15:00
5:35 AM,75.7,71.1,85,29.96,10.0,Calm,Calm,-,N/A,,Clear,0,2013-07-11 10:35:00
5:55 AM,75.2,70.7,86,29.96,10.0,Calm,Calm,-,N/A,,Clear,0,2013-07-11 10:55:00
6:15 AM,75.2,70.7,86,29.97,10.0,Calm,Calm,-,N/A,,Clear,0,2013-07-11 11:15:00
6:35 AM,75.6,70.9,85,29.97,10.0,North,3.5,-,N/A,,Clear,360,2013-07-11 11:35:00
6:55 AM,76.3,71.2,84,29.97,10.0,Calm,Calm,-,N/A,,Clear,0,2013-07-11 11:55:00
7:15 AM,77.0,71.1,82,29.98,10.0,Calm,Calm,-,N/A,,Clear,0,2013-07-11 12:15:00
7:35 AM,77.9,71.1,79,29.98,10.0,North,5.8,-,N/A,,Clear,360,2013-07-11 12:35:00
7:55 AM,78.8,71.2,78,29.98,10.0,North,5.8,-,N/A,,Clear,10,2013-07-11 12:55:00
8:15 AM,79.7,71.4,76,29.99,10.0,NNE,8.1,-,N/A,,Clear,20,2013-07-11 13:15:00
8:35 AM,80.6,71.4,73,29.99,10.0,North,4.6,-,N/A,,Clear,360,2013-07-11 13:35:00
8:55 AM,81.5,72.5,74,29.99,10.0,North,5.8,-,N/A,,Clear,360,2013-07-11 13:55:00
9:15 AM,81.7,72.0,72,29.99,10.0,North,5.8,-,N/A,,Clear,360,2013-07-11 14:15:00
9:35 AM,82.4,72.3,71,29.99,10.0,North,8.1,-,N/A,,Clear,350,2013-07-11 14:35:00
9:55 AM,83.5,72.5,69,29.99,10.0,North,8.1,-,N/A,,Clear,350,2013-07-11 14:55:00
10:15 AM,83.7,72.0,68,30.00,10.0,NNE,11.5,-,N/A,,Clear,20,2013-07-11 15:15:00
10:35 AM,84.2,72.0,67,30.00,10.0,North,9.2,-,N/A,,Clear,360,2013-07-11 15:35:00
10:55 AM,84.2,70.9,64,30.00,10.0,NNE,11.5,-,N/A,,Scattered Clouds,20,2013-07-11 15:55:00
11:15 AM,85.5,71.2,62,30.01,10.0,North,9.2,-,N/A,,Mostly Cloudy,350,2013-07-11 16:15:00
11:35 AM,84.0,70.2,63,30.01,10.0,North,9.2,-,N/A,,Mostly Cloudy,360,2013-07-11 16:35:00
11:55 AM,86.2,70.0,58,30.01,10.0,North,12.7,-,N/A,,Scattered Clouds,360,2013-07-11 16:55:00
12:15 PM,84.2,67.6,57,30.01,10.0,North,10.4,-,N/A,,Scattered Clouds,10,2013-07-11 17:15:00
12:35 PM,85.1,66.9,54,30.01,10.0,North,11.5,-,N/A,,Scattered Clouds,350,2013-07-11 17:35:00
12:55 PM,85.8,65.8,51,30.01,10.0,North,10.4,-,N/A,,Scattered Clouds,360,2013-07-11 17:55:00
1:15 PM,86.7,65.3,49,30.01,10.0,NNE,12.7,-,N/A,,Scattered Clouds,20,2013-07-11 18:15:00
1:35 PM,86.9,64.4,47,30.01,10.0,NE,11.5,-,N/A,,Scattered Clouds,40,2013-07-11 18:35:00
1:55 PM,86.7,63.7,46,30.00,10.0,North,10.4,17.3,N/A,,Scattered Clouds,10,2013-07-11 18:55:00
2:15 PM,87.6,64.2,46,30.00,10.0,NNE,10.4,16.1,N/A,,Scattered Clouds,20,2013-07-11 19:15:00
2:35 PM,87.8,64.0,45,30.00,10.0,North,12.7,-,N/A,,Clear,360,2013-07-11 19:35:00
2:55 PM,87.3,62.1,43,30.00,10.0,North,9.2,18.4,N/A,,Clear,10,2013-07-11 19:55:00
3:15 PM,87.8,61.9,42,30.01,10.0,North,11.5,-,N/A,,Scattered Clouds,350,2013-07-11 20:15:00
3:35 PM,87.1,62.2,43,30.00,10.0,North,10.4,20.7,N/A,,Clear,10,2013-07-11 20:35:00
3:55 PM,86.9,61.5,42,30.00,10.0,North,12.7,19.6,N/A,,Clear,10,2013-07-11 20:55:00
4:15 PM,86.9,61.5,42,30.00,10.0,North,12.7,-,N/A,,Clear,350,2013-07-11 21:15:00
4:35 PM,86.9,60.8,41,30.00,10.0,North,11.5,-,N/A,,Clear,360,2013-07-11 21:35:00
4:55 PM,86.9,60.4,41,30.00,10.0,North,8.1,-,N/A,,Clear,10,2013-07-11 21:55:00
5:15 PM,86.0,59.9,41,29.99,10.0,North,12.7,18.4,N/A,,Clear,10,2013-07-11 22:15:00
5:35 PM,85.5,59.9,42,29.99,10.0,NNE,10.4,-,N/A,,Clear,20,2013-07-11 22:35:00
5:55 PM,85.5,60.8,43,29.99,10.0,NNE,13.8,-,N/A,,Clear,20,2013-07-11 22:55:00
6:15 PM,84.7,60.3,43,29.99,10.0,NNE,11.5,17.3,N/A,,Clear,30,2013-07-11 23:15:00
6:35 PM,84.2,59.0,42,29.99,10.0,North,12.7,16.1,N/A,,Clear,10,2013-07-11 23:35:00
6:55 PM,83.3,58.8,43,29.99,10.0,NNE,10.4,-,N/A,,Clear,20,2013-07-11 23:55:00
7:15 PM,82.2,57.4,43,29.98,10.0,NNE,9.2,17.3,N/A,,Clear,20,2013-07-12 00:15:00
7:35 PM,80.8,58.5,46,29.98,10.0,NNE,8.1,-,N/A,,Clear,20,2013-07-12 00:35:00
7:55 PM,79.2,59.0,50,29.99,10.0,North,4.6,-,N/A,,Clear,10,2013-07-12 00:55:00
8:15 PM,77.9,58.6,51,29.99,10.0,NNE,6.9,-,N/A,,Clear,20,2013-07-12 01:15:00
8:35 PM,76.8,57.9,52,29.99,10.0,NNE,5.8,-,N/A,,Clear,20,2013-07-12 01:35:00
8:55 PM,75.7,58.1,54,29.99,10.0,NNE,4.6,-,N/A,,Clear,20,2013-07-12 01:55:00
9:15 PM,74.3,58.6,58,30.00,10.0,NNE,4.6,-,N/A,,Clear,20,2013-07-12 02:15:00
9:35 PM,73.9,59.0,59,30.01,10.0,NNE,5.8,-,N/A,,Clear,30,2013-07-12 02:35:00
9:55 PM,73.4,59.0,61,30.01,10.0,NNE,3.5,-,N/A,,Clear,20,2013-07-12 02:55:00
10:15 PM,72.9,59.0,62,30.02,10.0,North,3.5,-,N/A,,Clear,360,2013-07-12 03:15:00
10:35 PM,72.3,59.2,63,30.02,10.0,Calm,Calm,-,N/A,,Clear,0,2013-07-12 03:35:00
10:55 PM,71.4,59.2,65,30.02,10.0,North,4.6,-,N/A,,Clear,10,2013-07-12 03:55:00
11:15 PM,71.1,59.4,66,30.03,10.0,North,3.5,-,N/A,,Clear,10,2013-07-12 04:15:00
11:35 PM,69.1,59.0,70,30.03,10.0,North,3.5,-,N/A,,Clear,360,2013-07-12 04:35:00
11:55 PM,67.6,59.0,74,30.04,10.0,Calm,Calm,-,N/A,,Clear,0,2013-07-12 04:55:00